Location: Hanover
(52.3667°N, 9.7167°E)
Time: 02:52:06
(UTC+01:00)

CUBESAT XI-V - Pass Details

Date: 12 November 2024
Orbit: 651 x 673 km, 98.2° (Epoch: 08 December)

Event Time Altitude Azimuth Distance (km) Brightness Sun altitude
Rises 17:10:09 0° 5° (N) 3,038 ? -6.1°
Reaches altitude 10° 17:12:53 10° 349° (NNW) 2,116 ? -6.4°
Maximum altitude 17:16:10 20° 303° (WNW) 1,559 ? -6.9°
Drops below altitude 10° 17:19:26 10° 258° (WSW) 2,097 ? -7.4°
Sets 17:22:09 0° 241° (WSW) 3,001 ? -7.8°
